Location: Oshawa
(43.9000°N, 78.8670°W)
Time: 20:05:03
(UTC-04:00)

Cosmos 1408 Rocket - Visible Passes

Search period start: 07 July 2015 00:00
Search period end: 17 July 2015 00:00
Orbit: 603 x 631 km, 82.6° (Epoch: 07 July)

Date Brightness Start Highest point End Pass type
(mag) Time Alt. Az. Time Alt. Az. Time Alt. Az.
07 Jul 5.4 04:47:22 10° N 04:51:23 34° ENE 04:55:23 10° SE visible
08 Jul 4.2 05:03:47 10° N 05:08:11 61° E 05:12:29 10° SSE visible
09 Jul 6.7 03:45:01 10° NE 03:46:21 11° ENE 03:47:54 10° E visible
10 Jul 6.3 04:00:13 10° NNE 04:03:23 19° ENE 04:06:38 10° ESE visible
11 Jul 5.3 04:16:19 10° N 04:20:18 33° ENE 04:24:16 10° SE visible
12 Jul 4.1 04:32:43 10° N 04:37:05 60° E 04:41:23 10° SSE visible
13 Jul 6.6 03:14:03 10° NE 03:15:15 11° ENE 03:16:40 10° E visible
13 Jul 3.5 04:49:22 10° NNW 04:53:46 74° W 04:58:05 10° S visible
14 Jul 6.1 03:29:10 10° NNE 03:32:17 19° ENE 03:35:29 10° ESE visible
14 Jul 4.1 05:06:14 10° NNW 05:10:22 40° W 05:14:24 10° SSW visible
15 Jul 5.2 03:45:14 10° N 03:49:12 32° ENE 03:53:08 10° SE visible
16 Jul 4.1 04:01:39 10° N 04:05:59 59° E 04:10:16 10° SSE visible
